Rockwood, MI

9:43 PM EST on December 10, 2016 (GMT -0500)
Grosse Ile Municipal

Weather History for KONZ - December, 2013

Change the Weather History Date:

Tuesday, December 31, 2013

  Actual Average (KDTW) Record (KDTW)
Temperature  
Mean Temperature 18 °F -  
Max Temperature 21 °F 32 °F 65 °F (1875)
Min Temperature 15 °F 18 °F -5 °F (1976)
Degree Days  
Heating Degree Days 47    
Moisture  
Dew Point 11 °F    
Average Humidity 73    
Maximum Humidity 86    
Minimum Humidity 58    
Precipitation  
Precipitation 0.00 in - - ()
Sea Level Pressure  
Sea Level Pressure 30.17 in    
Wind  
Wind Speed 10 mph (WSW)    
Max Wind Speed 17 mph    
Max Gust Speed 25 mph    
Visibility 7 miles    
Events Snow    
Averages and records for this station are not official NWS values.
T = Trace of Precipitation, MM = Missing Value Source: NWS Daily Summary

Daily Weather History Graph

Daily Weather History Graph

Search for Another Location

Airport or City:

Trip Planner

Search our weather history database for the weather conditions in past years. The results will help you decide how hot, cold, wet, or windy it might be!

Date:

Astronomy

Dec. 31, 2013 Rise Set
Actual Time 8:00 AM EST 5:10 PM EST
Civil Twilight 7:29 AM EST 5:42 PM EST
Nautical Twilight 6:54 AM EST 6:17 PM EST
Astronomical Twilight 6:20 AM EST 6:51 PM EST
Moon 6:51 AM EST (12/31) 4:46 PM EST (12/31)
Length of Visible Light 10h 13m
Length of Day
9h 09m
Waning Crescent, 1% of the Moon is Illuminated
Dec 31
Waning Crescent
Jan 1
New
Jan 7
First Quarter
Jan 15
Full
Jan 24
Last Quarter

Hourly Weather History & Observations

Time (EST) Temp. Windchill Dew Point Humidity Pressure Visibility Wind Dir Wind Speed Gust Speed Precip Events Conditions
12:14 AM 21.2 °F 12.6 °F 15.8 °F 80% 30.09 in 10.0 mi WSW 6.9 mph - N/A   Overcast
12:34 AM 21.2 °F 12.6 °F 15.8 °F 80% 30.08 in 10.0 mi WSW 6.9 mph - N/A   Overcast
12:54 AM 21.2 °F 11.7 °F 15.8 °F 80% 30.07 in 7.0 mi WSW 8.1 mph - N/A Snow Light Snow
1:14 AM 21.2 °F 11.7 °F 15.8 °F 80% 30.07 in 10.0 mi WSW 8.1 mph - N/A   Overcast
1:34 AM 21.2 °F 9.5 °F 15.8 °F 80% 30.07 in 4.0 mi WSW 11.5 mph - N/A Snow Light Snow
1:54 AM 21.2 °F 11.7 °F 17.6 °F 86% 30.06 in 2.0 mi SW 8.1 mph - N/A Snow Light Snow
2:14 AM 21.2 °F 11.7 °F 17.6 °F 86% 30.06 in 2.0 mi WSW 8.1 mph - N/A Snow Light Snow
2:34 AM 19.4 °F 7.9 °F 15.8 °F 86% 30.06 in 2.5 mi WSW 10.4 mph 17.3 mph N/A Snow Light Snow
2:54 AM 19.4 °F 7.2 °F 15.8 °F 86% 30.06 in 3.0 mi WSW 11.5 mph 16.1 mph N/A Snow Light Snow
3:14 AM 19.4 °F 8.6 °F 15.8 °F 86% 30.06 in 4.0 mi WSW 9.2 mph - N/A Snow Light Snow
3:34 AM 19.4 °F 7.9 °F 15.8 °F 86% 30.05 in 4.0 mi WSW 10.4 mph 17.3 mph N/A Snow Light Snow
3:54 AM 19.4 °F 5.5 °F 14.0 °F 80% 30.05 in 4.0 mi WSW 15.0 mph - N/A Snow Light Snow
4:14 AM 19.4 °F 6.6 °F 14.0 °F 80% 30.04 in 2.5 mi WSW 12.7 mph 18.4 mph N/A Snow Light Snow
4:35 AM 17.6 °F 4.3 °F 12.2 °F 79% 30.04 in 2.5 mi WSW 12.7 mph - N/A Snow Light Snow
4:54 AM 17.6 °F 5.7 °F 12.2 °F 79% 30.04 in 3.0 mi West 10.4 mph - N/A Snow Light Snow
5:14 AM 17.6 °F 4.3 °F 12.2 °F 79% 30.04 in 4.0 mi West 12.7 mph 18.4 mph N/A Snow Light Snow
5:34 AM 17.6 °F 5.7 °F 12.2 °F 79% 30.05 in 3.0 mi WSW 10.4 mph - N/A Snow Light Snow
5:54 AM 17.6 °F 5.7 °F 12.2 °F 79% 30.06 in 7.0 mi West 10.4 mph 18.4 mph N/A Snow Light Snow
6:14 AM 17.6 °F 4.3 °F 10.4 °F 73% 30.06 in 10.0 mi West 12.7 mph 18.4 mph N/A   Overcast
6:34 AM 17.6 °F 5.0 °F 10.4 °F 73% 30.07 in 10.0 mi WSW 11.5 mph 19.6 mph N/A   Overcast
6:55 AM 17.6 °F 2.7 °F 10.4 °F 73% 30.08 in 10.0 mi West 16.1 mph 23.0 mph N/A   Overcast
7:14 AM 17.6 °F 5.0 °F 10.4 °F 73% 30.09 in 10.0 mi West 11.5 mph 16.1 mph N/A   Overcast
7:34 AM 15.8 °F 1.4 °F 8.6 °F 73% 30.09 in 10.0 mi West 13.8 mph 18.4 mph N/A   Overcast
7:54 AM 15.8 °F 1.4 °F 8.6 °F 73% 30.09 in 10.0 mi West 13.8 mph 21.9 mph N/A   Overcast
8:14 AM 15.8 °F 2.7 °F 8.6 °F 73% 30.10 in 10.0 mi West 11.5 mph - N/A   Overcast
8:34 AM 17.6 °F 5.0 °F 8.6 °F 68% 30.11 in 10.0 mi West 11.5 mph 19.6 mph N/A   Overcast
8:54 AM 15.8 °F 2.1 °F 8.6 °F 73% 30.12 in 10.0 mi West 12.7 mph 17.3 mph N/A   Overcast
9:14 AM 17.6 °F 3.7 °F 10.4 °F 73% 30.14 in 10.0 mi West 13.8 mph 20.7 mph N/A Snow Light Snow
9:34 AM 17.6 °F 6.4 °F 10.4 °F 73% 30.15 in 10.0 mi West 9.2 mph 20.7 mph N/A Snow Light Snow
9:54 AM 17.6 °F 5.0 °F 10.4 °F 73% 30.16 in 10.0 mi West 11.5 mph 19.6 mph N/A Snow Light Snow
10:14 AM 19.4 °F 5.0 °F 8.6 °F 63% 30.18 in 10.0 mi West 16.1 mph 20.7 mph N/A   Overcast
10:34 AM 19.4 °F 5.5 °F 8.6 °F 63% 30.19 in 10.0 mi West 15.0 mph 20.7 mph N/A   Overcast
10:54 AM 19.4 °F 7.2 °F 8.6 °F 63% 30.19 in 10.0 mi West 11.5 mph 20.7 mph N/A   Overcast
11:14 AM 19.4 °F 7.9 °F 8.6 °F 63% 30.19 in 10.0 mi West 10.4 mph 19.6 mph N/A   Overcast
11:34 AM 19.4 °F 7.9 °F 10.4 °F 68% 30.21 in 7.0 mi WNW 10.4 mph 17.3 mph N/A Snow Light Snow
11:54 AM 19.4 °F 9.5 °F 10.4 °F 68% 30.21 in 10.0 mi West 8.1 mph - N/A   Overcast
12:14 PM 19.4 °F 7.2 °F 10.4 °F 68% 30.21 in 2.5 mi WSW 11.5 mph 20.7 mph N/A Snow Light Snow
12:34 PM 19.4 °F 6.6 °F 12.2 °F 74% 30.22 in 2.0 mi WSW 12.7 mph - N/A Snow Light Snow
12:54 PM 19.4 °F 9.5 °F 14.0 °F 80% 30.22 in 2.5 mi WSW 8.1 mph - N/A Snow Light Snow
1:14 PM 19.4 °F 4.5 °F 14.0 °F 80% 30.23 in 1.0 mi WSW 17.3 mph 23.0 mph N/A Snow Light Snow
1:34 PM 19.4 °F 6.6 °F 14.0 °F 80% 30.23 in 1.8 mi WSW 12.7 mph 20.7 mph N/A Snow Light Snow
1:54 PM 21.2 °F 7.8 °F 15.8 °F 80% 30.22 in 4.0 mi WSW 15.0 mph 24.2 mph N/A Snow Light Snow
2:14 PM 21.2 °F 7.8 °F 12.2 °F 68% 30.22 in 10.0 mi WSW 15.0 mph 20.7 mph N/A   Overcast
2:34 PM 21.2 °F 8.3 °F 10.4 °F 63% 30.21 in 10.0 mi SW 13.8 mph 23.0 mph N/A Snow Light Snow
2:54 PM 21.2 °F 7.8 °F 8.6 °F 58% 30.22 in 10.0 mi WSW 15.0 mph 25.3 mph N/A   Overcast
3:14 PM 21.2 °F 8.9 °F 8.6 °F 58% 30.21 in 10.0 mi WSW 12.7 mph 23.0 mph N/A   Overcast
3:34 PM 21.2 °F 9.5 °F 8.6 °F 58% 30.21 in 10.0 mi WSW 11.5 mph 17.3 mph N/A   Overcast
3:55 PM 21.2 °F 8.9 °F 10.4 °F 63% 30.22 in 10.0 mi WSW 12.7 mph 19.6 mph N/A   Mostly Cloudy
4:14 PM 21.2 °F 8.9 °F 10.4 °F 63% 30.22 in 10.0 mi WSW 12.7 mph 21.9 mph N/A   Mostly Cloudy
4:34 PM 19.4 °F 8.6 °F 8.6 °F 63% 30.23 in 10.0 mi WSW 9.2 mph 21.9 mph N/A   Mostly Cloudy
4:55 PM 19.4 °F 7.2 °F 8.6 °F 63% 30.23 in 10.0 mi SW 11.5 mph 17.3 mph N/A   Scattered Clouds
5:14 PM 19.4 °F 7.9 °F 8.6 °F 63% 30.23 in 10.0 mi SW 10.4 mph - N/A   Mostly Cloudy
5:34 PM 19.4 °F 8.6 °F 8.6 °F 63% 30.23 in 10.0 mi SW 9.2 mph 17.3 mph N/A   Overcast
5:54 PM 19.4 °F 7.9 °F 10.4 °F 68% 30.24 in 10.0 mi WSW 10.4 mph - N/A   Overcast
6:14 PM 19.4 °F 7.2 °F 8.6 °F 63% 30.25 in 10.0 mi WSW 11.5 mph 17.3 mph N/A   Overcast
6:34 PM 19.4 °F 8.6 °F 8.6 °F 63% 30.25 in 10.0 mi WSW 9.2 mph 17.3 mph N/A   Overcast
6:54 PM 19.4 °F 7.9 °F 8.6 °F 63% 30.26 in 10.0 mi WSW 10.4 mph 17.3 mph N/A   Overcast
6:59 PM 19.4 °F 7.2 °F 8.6 °F 63% 30.26 in 10.0 mi WSW 11.5 mph 17.3 mph N/A   Overcast
7:34 PM 17.6 °F 7.3 °F 8.6 °F 68% 30.26 in 10.0 mi West 8.1 mph - N/A   Overcast
7:54 PM 17.6 °F 5.7 °F 8.6 °F 68% 30.26 in 10.0 mi West 10.4 mph - N/A   Overcast
8:14 PM 17.6 °F 9.3 °F 10.4 °F 73% 30.26 in 10.0 mi WSW 5.8 mph - N/A   Overcast
8:34 PM 17.6 °F 9.3 °F 10.4 °F 73% 30.27 in 10.0 mi WSW 5.8 mph - N/A   Overcast
8:54 PM 17.6 °F 7.3 °F 8.6 °F 68% 30.27 in 10.0 mi WSW 8.1 mph - N/A   Overcast
9:14 PM 17.6 °F 6.4 °F 8.6 °F 68% 30.27 in 7.0 mi West 9.2 mph - N/A Snow Light Snow
9:34 PM 17.6 °F 9.3 °F 10.4 °F 73% 30.28 in 5.0 mi West 5.8 mph - N/A Snow Light Snow
9:54 PM 17.6 °F 6.4 °F 10.4 °F 73% 30.28 in 3.0 mi West 9.2 mph - N/A Snow Light Snow
10:15 PM 17.6 °F 6.4 °F 12.2 °F 79% 30.29 in 2.0 mi WSW 9.2 mph - N/A Snow Light Snow
10:34 PM 17.6 °F 10.7 °F 12.2 °F 79% 30.30 in 1.5 mi WSW 4.6 mph - N/A Snow Light Snow
10:54 PM 17.6 °F 8.2 °F 12.2 °F 79% 30.30 in 1.5 mi WSW 6.9 mph - N/A Snow Light Snow
11:15 PM 17.6 °F 6.4 °F 12.2 °F 79% 30.31 in 2.0 mi WSW 9.2 mph - N/A Snow Light Snow
11:34 PM 17.6 °F 8.2 °F 14.0 °F 86% 30.31 in 1.8 mi WSW 6.9 mph - N/A Snow Light Snow
11:54 PM 17.6 °F 8.2 °F 12.2 °F 79% 30.31 in 2.5 mi WSW 6.9 mph - N/A Snow Light Snow